Regional Weather Roundup
Issued by NWS Kansas City/Pleasant Hill, MO

Home | Current Version | Previous Version | Text Only | Print | Product List | Glossary On
Versions: 1 2 3 4 5 6 7 8 9 10 11 12 13 14 15 16 17 18 19 20 21 22 23 24 25 26 27 28 29 30 31 32 33 34 35 36 37 38 39 40 41 42 43 44 45 46 47 48 49 50
263
ASUS43 KEAX 252210
RWREAX

WEATHER ROUNDUP FOR EASTERN KANSAS AND NORTHWEST MISSOURI
NATIONAL WEATHER SERVICE KANSAS CITY/PLEASANT HILL MO
500 PM CDT MON JUL 25 2016

KSZ040-057-103>105-MOZ028-029-037-043-252300-
...KANSAS CITY METROPOLITAN AREA...

CITY           SKY/WX    TMP DP  RH WIND       PRES   REMARKS
K.C. INTL      PTSUNNY   84  67  56 NE8       30.03R
K.C. DOWNTOWN  CLOUDY    88  68  51 VRB7      30.00R HX  91
LEES SUMMIT    CLOUDY    84  72  67 NE13      30.02S
OLATHE - IXD   CLOUDY    82  70  66 CALM      30.04S
OLATHE - OJC   CLOUDY    82  70  66 NE5       30.03S
LAWRENCE       CLOUDY    84  72  67 N3        30.02S

$$

MOZ001>008-011>017-020>025-030>033-038>040-044>046-053-054-252300-
...NORTHERN AND CENTRAL MISSOURI...

CITY           SKY/WX    TMP DP  RH WIND       PRES   REMARKS
ST. JOSEPH     MOSUNNY   87  62  43 NE9       30.02F
MOSBY          CLOUDY    86  63  45 N8        30.01S
WHITEMAN AFB   NOT AVBL
CLINTON        CLOUDY    81  73  78 NE8       30.01R
SEDALIA        MOSUNNY   84  73  69 NE8       30.02S HX  90
WARSAW         NOT AVBL
CHILLICOTHE      N/A     88  63  43 N9        30.02F
KIRKSVILLE     SUNNY     86  65  49 N13       30.03F

$$

MOZ041-047>049-056>058-063>065-088>090-097-252300-
...EASTERN AND SOUTHERN MISSOURI...

CITY           SKY/WX    TMP DP  RH WIND       PRES   REMARKS
ST. LOUIS INTL PTSUNNY   87  75  67 NW12      29.97S HX  96
SPIRIT OF STL  PTSUNNY   86  76  71 N12       29.96S HX  96
COLUMBIA       PTSUNNY   83  72  69 N9        30.00S
JEFFERSON CITY CLOUDY    84  72  67 NE7       29.98F
ROLLA          CLOUDY    81  73  76 N9        29.99S
OSAGE BEACH    CLOUDY    81  75  82 NE8       30.00R
SPRINGFIELD    PTSUNNY   83  71  67 NE9       30.00R
BRANSON        PTSUNNY   81  72  74 E5        29.99F
JOPLIN         CLOUDY    83  73  72 N8        30.00R
WEST PLAINS    PTSUNNY   86  72  62 N8        29.99F HX  92

$$

IAZ060-094-KSZ022-034>040-054-083-096-NEZ052-066-093-252300-
...KANSAS...SOUTHEAST NEBRASKA AND IOWA...

CITY           SKY/WX    TMP DP  RH WIND       PRES   REMARKS
TOPEKA           N/A     84  69  60 NE9       30.03F
MANHATTAN      MOSUNNY   83  69  62 NE7       30.04F
EMPORIA        MOSUNNY   79  71  76 N8        30.04F
CHANUTE        CLOUDY    82  72  71 N8        30.01S
WICHITA        PTSUNNY   87  69  54 N10       30.00F HX  91
OMAHA          MOSUNNY   88  63  43 NE10      30.05F
LINCOLN        SUNNY     87  62  43 NE10      30.06F
FALLS CITY     SUNNY     86  68  54 NE7       30.03F
LAMONI         CLOUDY    85  68  56 N10       30.04F
DES MOINES     MOSUNNY   88  62  41 N12       30.03F

$$





USA.gov is the U.S. government's official web portal to all federal, state and local government web resources and services.